[[{"header":{"parameterUnit":"m.s-1","parameterCategory":1,"la1":30.2991,"la2":30.254,"lo1":-89.0895,"lo2":-89.0444,"dy":0.0017,"dx":0.0017,"nx":28,"ny":28,"refTime":"2024-10-12T21:00:00:Z","depth":0,"parameterNumber":2,"parameterNumberName":"U-component_of_WINDS"},"data":[0,0,0,0,0,0,0,0,0,0,0,0,0,0,0,0,0,0,0,0,0,0,0,0,0,0,0,0,0,0,0,0,0,0,0,0,0,0,0,0,0,0,0,0,0,0,0,0,0,0,0,0,0,0,0,0,0,0,1.7228,1.7229,0,1.7304,1.7305,1.7306,1.7318,1.7317,1.7316,1.7315,1.7398,1.7401,1.7404,0,0,0,0,0,0,0,0,0,0,0,0,0,1.7097,1.7099,1.7228,1.7229,1.723,1.7304,1.7305,1.7306,1.7318,1.7317,1.7316,1.7315,1.7397,1.74,1.7404,0,0,0,0,0,0,0,0,0,0,0,0,0,1.7162,1.71,1.7228,1.7244,1.7247,1.7304,1.7305,1.7307,1.7318,1.7317,1.7316,1.7315,1.7396,1.74,1.7404,1.7452,0,0,1.7417,1.7419,0,0,0,0,0,0,0,0,1.7158,1.7166,1.7241,1.7243,1.7246,1.73,1.7289,1.7355,1.7318,1.7291,1.7315,1.7314,1.7367,1.7373,1.739,1.7456,1.7459,1.7418,1.742,1.7422,1.7423,0,0,0,0,0,0,0,1.7153,1.7163,1.7258,1.7242,1.7245,1.725,1.7258,1.7302,1.7334,1.7293,1.7294,1.7303,1.7368,1.7386,1.7392,1.746,1.7418,1.7421,1.7424,1.7426,1.757,1.7571,0,0,0,0,0,0,1.7145,1.7159,1.7256,1.7261,1.7198,1.7253,1.7262,1.7284,1.7333,1.734,1.7304,1.7303,1.7379,1.7387,1.7395,1.7454,1.7422,1.7426,1.7429,1.7569,1.757,1.7572,0,0,0,0,0,0,1.7142,1.7154,1.7253,1.721,1.7223,1.7256,1.7281,1.7286,1.7304,1.7341,1.7347,1.7316,1.7379,1.7389,1.7437,1.7457,1.7428,1.7432,1.7567,1.7569,1.7571,1.7573,0,0,0,0,0,0,1.7139,1.7153,1.717,1.7211,1.7225,1.7293,1.7282,1.7288,1.7311,1.7311,1.7354,1.7361,1.7379,1.7431,1.7442,1.7463,1.7435,1.7566,1.7568,1.757,1.7572,1.7575,1.7578,0,0,0,0,0,1.7134,1.7168,1.7171,1.7182,1.7247,1.7294,1.7302,1.7321,1.7312,1.7331,1.7355,1.7359,1.7453,1.7436,1.7448,1.7471,1.7565,1.7568,1.757,1.757,1.7574,1.7578,0,0,0,0,0,0,1.713,1.7174,1.7177,1.7225,1.7255,1.7295,1.7319,1.7325,1.7359,1.7358,1.7381,1.7391,1.7438,1.746,1.7439,1.752,1.7509,1.7514,1.7504,1.7509,1.7512,1.7506,1.7439,0,0,0,0,0,1.7135,1.7167,1.7204,1.7243,1.7258,1.7286,1.7307,1.7318,1.7351,1.7365,1.7392,1.7425,1.7463,1.7487,1.7523,1.7575,1.7585,1.7596,1.7599,1.7602,1.7607,1.7637,1.7642,1.7581,1.7581,1.7581,0,0,1.7145,1.7173,1.7192,1.7243,1.7268,1.7303,1.7297,1.7334,1.736,1.7371,1.7418,1.744,1.7478,1.7529,1.7552,1.7548,1.7626,1.7606,1.7607,1.7611,1.764,1.7646,1.7651,1.7583,1.7583,1.7582,0,0,1.7181,1.7205,1.7241,1.7265,1.7303,1.7321,1.733,1.7369,1.7383,1.7431,1.744,1.7473,1.7536,1.7563,1.7585,1.7633,1.7639,1.7644,1.7661,1.769,1.7695,1.7699,1.7717,1.7723,1.7649,1.7649,1.7649,0,1.719,1.7241,1.7258,1.7295,1.7318,1.7328,1.7365,1.7389,1.7437,1.7453,1.7447,1.7527,1.7553,1.7611,1.7622,1.764,1.7651,1.7639,1.7692,1.7697,1.7702,1.7719,1.7725,1.7649,1.7649,1.7649,1.7649,0,1.725,1.7285,1.731,1.7354,1.738,1.7417,1.7441,1.7465,1.7475,1.7495,1.7544,1.7576,1.7619,1.7634,1.7644,1.7693,1.7689,1.7687,1.7677,1.7707,1.7724,1.7731,1.765,1.7649,1.7649,1.7649,0,0,1.7286,1.734,1.7349,1.7369,1.7412,1.744,1.7478,1.7519,1.754,1.7573,1.7606,1.7659,1.7658,1.7683,1.7697,1.7722,1.7759,1.7718,1.7719,1.7725,1.7816,1.7818,1.7825,1.7763,1.7764,1.7765,1.7813,0,1.7328,1.7394,1.7411,1.7468,1.7502,1.7512,1.7546,1.7576,1.7595,1.7628,1.765,1.7688,1.7683,1.7698,1.7724,1.7749,1.7778,1.7746,1.7795,1.7797,1.7786,1.7834,1.7835,1.7879,1.782,1.7821,1.7822,0,1.7385,1.7418,1.7478,1.7517,1.7532,1.7561,1.76,1.7631,1.7666,1.7679,1.7707,1.7718,1.776,1.7746,1.7804,1.7782,1.7804,1.7819,1.7822,1.7827,1.7812,1.7842,1.7893,1.79,1.7832,1.7831,1.7831,0,1.7407,1.7466,1.751,1.7527,1.7573,1.7594,1.7614,1.7648,1.7672,1.7707,1.7723,1.7763,1.7785,1.7816,1.7839,1.7826,1.7895,1.7883,1.7908,1.7908,1.7923,1.7922,1.7979,1.7935,1.7935,1.7935,1.7935,0,1.7452,1.7489,1.752,1.7547,1.7589,1.7609,1.765,1.7671,1.7701,1.7734,1.7746,1.7776,1.7803,1.7838,1.7856,1.7902,1.7912,1.7924,1.7929,1.7924,1.7922,1.7939,1.7936,1.7937,1.7937,1.7936,1.7936,0,1.7483,1.7505,1.7554,1.7593,1.7604,1.7633,1.7667,1.7695,1.7715,1.7756,1.7766,1.7798,1.784,1.7865,1.7917,1.793,1.7981,1.7984,1.7968,1.7971,1.7994,1.7992,1.8065,1.8076,1.8024,1.8024,1.8025,0,1.7511,1.7539,1.7581,1.7603,1.7623,1.7658,1.7682,1.7704,1.7729,1.7772,1.7794,1.7836,1.7871,1.7937,1.7965,1.8006,1.8011,1.8034,1.8017,1.8011,1.8012,1.801,1.8014,1.8037,1.8037,1.8037,1.8038,0,1.7558,1.7568,1.7601,1.7639,1.7667,1.7698,1.7729,1.7747,1.7774,1.7802,1.7844,1.787,1.7924,1.7966,1.8009,1.8032,1.804,1.8042,1.8051,1.8046,1.8036,1.8042,1.7977,1.8041,1.8041,1.804,1.804,1.804,1.7589,1.7614,1.7648,1.7685,1.7711,1.774,1.7768,1.7791,1.7825,1.787,1.7881,1.7925,1.7961,1.8019,1.8043,1.8079,1.8076,1.8087,1.809,1.8093,1.8094,1.803,1.8087,1.8087,1.8087,1.8087,1.8087,0,1.7637,1.7659,1.7693,1.7736,1.7766,1.7769,1.7804,1.7829,1.7867,1.7899,1.7933,1.7982,1.8022,1.8054,1.8096,1.8119,1.8124,1.813,1.8129,1.8134,1.8094,1.8083,1.8125,1.8125,1.8125,1.8125,1.8125,1.8125,1.7666,1.771,1.7723,1.7781,1.7803,1.7845,1.7865,1.7893,1.7918,1.7971,1.8005,1.8025,1.8058,1.8102,1.814,1.8149,1.8164,1.8169,1.8179,1.8141,1.8137,1.8133,1.8123,1.8172,1.8173,1.8216,1.8216,1.8217]},{"header":{"parameterUnit":"m.s-1","parameterCategory":1,"la1":30.2991,"la2":30.254,"lo1":-89.0895,"lo2":-89.0444,"dy":0.0017,"dx":0.0017,"nx":28,"ny":28,"refTime":"2024-10-12T21:00:00:Z","depth":0,"parameterNumber":3,"parameterNumberName":"V-component_of_WINDS"},"data":[0,0,0,0,0,0,0,0,0,0,0,0,0,0,0,0,0,0,0,0,0,0,0,0,0,0,0,0,0,0,0,0,0,0,0,0,0,0,0,0,0,0,0,0,0,0,0,0,0,0,0,0,0,0,0,0,0,0,1.973,1.973,0,1.9728,1.9728,1.9728,1.9741,1.9741,1.9741,1.9742,1.9737,1.9737,1.9736,0,0,0,0,0,0,0,0,0,0,0,0,0,1.9742,1.9742,1.973,1.973,1.973,1.9728,1.9728,1.9728,1.9741,1.9741,1.9741,1.9742,1.9738,1.9737,1.9736,0,0,0,0,0,0,0,0,0,0,0,0,0,1.9738,1.9742,1.973,1.9736,1.9737,1.9728,1.9728,1.9728,1.974,1.9741,1.9742,1.9742,1.9738,1.9737,1.9736,1.9721,0,0,1.9734,1.9734,0,0,0,0,0,0,0,0,1.9738,1.9738,1.9735,1.9736,1.9736,1.9735,1.9731,1.9726,1.974,1.9739,1.9742,1.9742,1.9736,1.9736,1.9734,1.9721,1.9721,1.9734,1.9734,1.9734,1.9733,0,0,0,0,0,0,0,1.9738,1.9738,1.9729,1.9735,1.9736,1.9738,1.9738,1.973,1.9734,1.9739,1.974,1.974,1.9736,1.9735,1.9734,1.9721,1.9734,1.9734,1.9733,1.9733,1.9693,1.9692,0,0,0,0,0,0,1.9738,1.9738,1.9729,1.9729,1.9739,1.9737,1.9737,1.9735,1.9735,1.9735,1.9739,1.974,1.9735,1.9735,1.9734,1.9714,1.9734,1.9733,1.9733,1.9694,1.9693,1.9692,0,0,0,0,0,0,1.9739,1.9737,1.9729,1.9734,1.9733,1.9737,1.9734,1.9735,1.9733,1.9735,1.9735,1.9737,1.9736,1.9735,1.9724,1.9714,1.9733,1.9732,1.9694,1.9693,1.9692,1.9676,0,0,0,0,0,0,1.9739,1.9737,1.9733,1.9734,1.9733,1.9721,1.9733,1.9734,1.9732,1.9733,1.9732,1.9733,1.9736,1.9725,1.9723,1.9714,1.9731,1.9695,1.9694,1.9693,1.9678,1.9675,1.9673,0,0,0,0,0,1.9739,1.9728,1.9732,1.9731,1.9727,1.972,1.9719,1.9724,1.9731,1.9725,1.9726,1.9733,1.9716,1.9724,1.9722,1.9712,1.9696,1.9694,1.9693,1.9679,1.9676,1.9673,0,0,0,0,0,0,1.9726,1.9728,1.9733,1.9722,1.9721,1.9722,1.9715,1.9721,1.9717,1.9718,1.9724,1.9723,1.9711,1.9711,1.9719,1.9696,1.9707,1.9705,1.9697,1.9694,1.9691,1.9691,1.9731,0,0,0,0,0,1.9721,1.9717,1.9719,1.9709,1.9708,1.9712,1.9709,1.9713,1.9711,1.9711,1.9711,1.9708,1.9702,1.9698,1.9693,1.9678,1.9677,1.967,1.9668,1.9666,1.9664,1.9653,1.965,1.9687,1.9687,1.9687,0,0,1.9712,1.9713,1.971,1.9706,1.9706,1.9699,1.9711,1.9705,1.9699,1.9709,1.9699,1.9699,1.9696,1.9683,1.9677,1.9682,1.9653,1.9664,1.9662,1.9661,1.9652,1.9648,1.9645,1.9686,1.9686,1.9687,0,0,1.9693,1.9694,1.9685,1.9684,1.9683,1.9685,1.9683,1.9683,1.9683,1.9673,1.968,1.9673,1.9664,1.9661,1.9658,1.9636,1.964,1.9634,1.962,1.961,1.9607,1.9604,1.9595,1.9591,1.9632,1.9632,1.9632,0,1.9682,1.9673,1.9679,1.9672,1.9669,1.9678,1.9668,1.9667,1.9663,1.9661,1.9667,1.9653,1.9653,1.9638,1.9632,1.963,1.9626,1.9634,1.9607,1.9605,1.9602,1.9593,1.9589,1.9631,1.9631,1.9631,1.9631,0,1.9658,1.9652,1.9645,1.9642,1.9639,1.963,1.9633,1.9629,1.9633,1.9634,1.9622,1.9621,1.9615,1.9612,1.9616,1.9597,1.96,1.9607,1.9617,1.9598,1.9589,1.9585,1.963,1.963,1.963,1.963,0,0,1.963,1.963,1.9627,1.9625,1.9624,1.9619,1.9609,1.9604,1.9599,1.9596,1.9588,1.9578,1.9584,1.9581,1.9584,1.9576,1.9555,1.9583,1.9583,1.9576,1.9532,1.9526,1.9522,1.9559,1.9558,1.9558,1.9532,0,1.961,1.9595,1.9599,1.9584,1.9577,1.9585,1.9577,1.9574,1.9575,1.9568,1.9569,1.9561,1.957,1.9568,1.956,1.956,1.9546,1.9562,1.9549,1.9549,1.9548,1.9518,1.9512,1.9487,1.9528,1.9528,1.9528,0,1.9584,1.958,1.9564,1.9562,1.9559,1.9552,1.9546,1.9541,1.9537,1.9538,1.9534,1.9538,1.9527,1.9539,1.9523,1.9533,1.9528,1.9527,1.9526,1.9524,1.9536,1.9513,1.9479,1.9475,1.9523,1.9523,1.9523,0,1.9563,1.9553,1.9542,1.954,1.9539,1.9533,1.9532,1.9529,1.9525,1.9519,1.9516,1.951,1.9505,1.9499,1.9501,1.9509,1.9484,1.9496,1.9482,1.9482,1.9476,1.9476,1.9439,1.9475,1.9475,1.9475,1.9475,0,1.9538,1.9528,1.9532,1.9525,1.9513,1.9518,1.9505,1.9504,1.9502,1.9493,1.95,1.9492,1.9495,1.9487,1.9488,1.9473,1.9472,1.9471,1.9471,1.9469,1.9469,1.9465,1.9466,1.9474,1.9475,1.9475,1.9475,0,1.9512,1.9515,1.9503,1.9502,1.9502,1.9493,1.9491,1.9484,1.9485,1.9474,1.9471,1.9472,1.9462,1.9464,1.9453,1.9454,1.9435,1.9438,1.9436,1.9436,1.9422,1.9422,1.938,1.9374,1.9415,1.9415,1.9415,0,1.9496,1.9488,1.9486,1.9481,1.948,1.9472,1.9468,1.9472,1.9466,1.9461,1.9454,1.9445,1.9437,1.9421,1.942,1.9411,1.9413,1.9398,1.9411,1.9409,1.941,1.941,1.9408,1.9395,1.9395,1.9394,1.9394,0,1.9466,1.9468,1.9462,1.9455,1.945,1.9445,1.9441,1.9436,1.9439,1.9433,1.9423,1.9418,1.9406,1.9396,1.9387,1.9385,1.9389,1.939,1.9386,1.9384,1.9382,1.9381,1.9427,1.9391,1.9391,1.9391,1.9392,1.9392,1.9443,1.9436,1.9433,1.9425,1.9422,1.9418,1.941,1.941,1.9402,1.9393,1.9396,1.9384,1.9379,1.9368,1.9364,1.9354,1.9359,1.9354,1.9352,1.9351,1.9348,1.9385,1.9353,1.9353,1.9353,1.9353,1.9353,0,1.9412,1.9411,1.9404,1.9397,1.9391,1.9397,1.9392,1.9385,1.9375,1.937,1.9363,1.9351,1.9341,1.9338,1.9328,1.932,1.9322,1.9317,1.9317,1.9316,1.9345,1.9349,1.9316,1.9316,1.9316,1.9316,1.9316,1.9316,1.9395,1.9382,1.9383,1.9368,1.9366,1.9355,1.9352,1.9347,1.9343,1.9329,1.9321,1.932,1.9315,1.9304,1.9295,1.9294,1.9289,1.9283,1.9283,1.931,1.9314,1.9318,1.9321,1.9283,1.9283,1.9255,1.9254,1.9254]}]]